CAPE
0 0 0 0 0 0 0 0 0 0 0 0 0 0 0 0 0 0 0 0 0 0
0 0 0 0 0 0 0 0 0 0 0 0 0 0 0 0 0 0 0 0 0 0
0 0 0 0 0 0 0 0 0 0 0 0 0 0 0 0 0 0 0 0 0 0
0 0 0 0 0 0 0 0 0 0 0 0 0 0 0 0 0 0 0 0 0 0
0 0 0 0 0 0 0 0 0 0 0 0 0 0 0 0 0 0 0 0 0 0
0 0 0 0 0 0 0 0 0 0 0 0 0 0 0 0 0 0 0 0 0 0
0 0 0 0 0 0 0 0 0 0 0 0 0 0 0 0 0 0 0 0 0 0
0 0 0 0 0 0 0 0 0 0 0 0 0 0 0 0 0 0 0 0 0 0
0 0 0 0 0 0 0 0 0 0 0 0 0 0 0 0 0 0 0 0 0 0
0 0 0 0 0 0 0 0 0 0 0 0 0 0 0 0 0 0 0 0 0 0
0 0 0 0 0 0 0 0 0 0 0 0 0 0 0 0 0 0 0 0 0 0
0 0 0 0 0 0 0 0 0 0 0 0 0 0 0 0 0 0 0 0 0 0
0 0 0 0 0 0 0 0 0 0 0 0 0 0 0 0 0 0 0 0 0 0
0 0 0 0 0 0 0 0 0 0 0 0 0 0 1 5 0 0 0 0 0 0
CIN
0 0 0 0 0 0 0 0 0 0 0 0 0 0 0 0 0 0 0 0 0 0
0 0 0 0 0 0 0 0 0 0 0 0 0 0 0 0 0 0 0 0 0 0
0 0 0 0 0 0 0 0 0 0 0 0 0 0 0 0 0 0 0 0 0 0
0 0 0 0 0 0 0 0 0 0 0 0 0 0 0 0 0 0 0 0 0 0
0 0 0 0 0 0 0 0 0 0 0 0 0 0 0 0 0 0 0 0 0 0
0 0 0 0 0 0 0 0 0 0 0 0 0 0 0 0 0 0 0 0 0 0
0 0 0 0 0 0 0 0 0 0 0 0 0 0 0 0 0 0 0 0 0 0
0 0 0 0 0 0 0 0 0 0 0 0 0 0 0 0 0 0 0 0 0 0
0 0 0 0 0 0 0 0 0 0 0 0 0 0 0 0 0 0 0 0 0 0
0 0 0 0 0 0 0 0 0 0 0 0 0 0 0 0 0 0 0 0 0 0
0 0 0 0 0 0 0 0 0 0 0 0 0 0 0 0 0 0 0 0 0 0
0 0 0 0 0 0 0 0 0 0 0 0 0 0 0 0 0 0 0 0 0 0
0 0 0 0 0 0 0 0 0 0 0 0 0 0 0 0 0 0 0 0 0 0
0 0 0 0 0 0 0 0 0 0 0 0 0 0 0 0 0 0 0 0 0 0
Wind_Speed
14 10 10 11 10 11 11 11 12 12 11 10 9 8 7 5 5 6 5 6 4 4
10 10 11 11 10 9 9 9 13 14 12 11 11 11 9 7 8 7 6 6 6 5
13 13 12 11 13 13 11 12 14 15 14 13 11 11 11 7 7 8 6 5 7 4
14 14 14 13 13 14 13 15 15 15 15 15 14 12 11 9 10 10 8 5 7 6
12 12 14 15 16 15 15 15 16 16 16 16 15 15 14 12 11 12 12 11 9 9
12 13 17 17 14 15 15 16 15 16 18 18 17 16 14 14 13 12 12 12 11 10
17 20 18 15 15 17 17 17 17 17 18 18 17 16 14 13 12 10 9 8 8 9
17 15 14 16 16 16 16 16 17 17 15 15 16 14 17 15 12 12 10 9 9 8
10 11 16 15 16 16 15 16 16 16 17 17 13 26 28 19 13 12 12 11 8 8
10 13 14 13 14 15 16 14 16 16 17 18 17 30 31 28 14 14 12 12 11 9
9 13 12 12 15 15 15 17 16 16 17 15 14 31 32 29 13 13 13 13 12 10
6 8 9 12 14 12 13 13 14 14 17 17 13 29 30 25 13 12 12 11 10 10
4 5 9 10 10 8 9 11 10 12 14 17 17 33 34 24 11 13 10 10 11 15
3 3 4 5 5 7 10 9 10 11 10 13 17 22 33 32 13 12 12 10 10 8
Wind_Direction
191 185 186 184 182 185 190 192 177 182 180 174 172 174 168 161 161 167 172 172 160 149
197 184 188 175 179 184 178 175 171 181 179 176 174 174 171 177 173 165 166 174 171 160
192 193 190 172 185 184 178 167 172 178 180 177 177 173 174 175 165 166 175 175 169 164
204 197 188 185 189 187 174 175 176 180 179 178 179 177 179 179 171 172 167 167 170 170
201 191 198 197 190 181 183 181 179 179 180 181 183 179 182 178 180 179 175 175 173 180
202 197 209 204 190 183 181 183 180 179 184 183 183 179 183 183 180 184 180 176 181 176
202 204 208 204 189 186 185 182 185 186 186 183 179 180 177 177 176 181 180 172 173 169
217 212 202 202 190 186 187 192 185 178 183 181 182 178 177 174 171 174 169 167 175 178
232 213 201 198 192 183 185 187 181 186 179 183 189 185 180 168 167 171 173 174 174 181
200 197 209 186 186 184 192 183 188 185 183 188 187 183 182 177 168 170 174 171 171 178
210 213 197 185 189 184 183 188 188 189 187 188 187 183 183 176 170 170 169 172 168 178
240 223 200 201 199 187 183 189 190 188 177 179 178 186 184 173 165 168 166 168 168 177
241 214 211 206 196 187 195 193 182 182 183 182 171 185 186 171 160 165 163 167 179 185
229 231 192 181 183 177 177 174 179 172 173 178 173 187 188 178 169 169 167 168 175 180